Location: Marcé
(47.5801°N, 0.3280°W)
Time: 00:22:50
(UTC+01:00)

S-56A Canister/Altair - Pass Details

Date: 02 December 2021
Orbit: 633 x 2499 km, 38.9° (Epoch: 17 January)

Event Time Altitude Azimuth Distance (km) Brightness Sun altitude
Rises 03:16:56 0° 250° (WSW) 4,418 - -51.1°
Reaches altitude 10° 03:20:35 10° 243° (WSW) 3,130 - -50.6°
Maximum altitude 03:27:06 36° 180° (S) 1,396 - -49.6°
Drops below altitude 10° 03:31:52 10° 113° (ESE) 2,270 - -48.9°
Sets 03:34:08 0° 104° (ESE) 3,072 - -48.5°
